VQBOS LIRN-LICG

Flight info

Callsign VQBOS
Flight time 0h 51m
Altitude 23000
Route N0460F230 PEVIR M725 GIANO M727 TRP L869 MEGAN M740 ROBET
Aircraft B738/M-Q/L

Departure

Time 2026-05-05 05:35
Airport Naples International Airport (LIRN)

Arrival

Time 2026-05-05 06:26
Airport Pantelleria Airport (LICG)
Time Latitude Longitude Altitude Speed Heading
2026-05-05 05:14 40.88193 14.28718 282 ft 0 kts 328°
2026-05-05 05:29 40.88179 14.28730 279 ft 2 kts 327°
2026-05-05 05:29 40.88165 14.28741 279 ft 2 kts 327°
2026-05-05 05:29 40.88151 14.28753 279 ft 2 kts 328°
2026-05-05 05:29 40.88136 14.28757 279 ft 2 kts 32°
2026-05-05 05:30 40.88126 14.28746 282 ft 1 kts 52°
2026-05-05 05:30 40.88125 14.28744 288 ft 0 kts 53°
2026-05-05 05:31 40.88128 14.28751 281 ft 4 kts 53°
2026-05-05 05:31 40.88172 14.28826 277 ft 16 kts 52°
2026-05-05 05:31 40.88250 14.28960 274 ft 20 kts 52°
2026-05-05 05:32 40.88336 14.29108 270 ft 21 kts 52°
2026-05-05 05:32 40.88435 14.29279 266 ft 25 kts 52°
2026-05-05 05:32 40.88542 14.29464 261 ft 26 kts 52°
2026-05-05 05:32 40.88651 14.29653 255 ft 26 kts 52°
2026-05-05 05:33 40.88764 14.29848 249 ft 27 kts 52°
2026-05-05 05:33 40.88879 14.30046 242 ft 22 kts 52°
2026-05-05 05:33 40.88965 14.30193 237 ft 14 kts 54°
2026-05-05 05:33 40.89051 14.30242 234 ft 15 kts 339°
2026-05-05 05:34 40.89109 14.30146 237 ft 14 kts 258°
2026-05-05 05:34 40.89051 14.30026 239 ft 26 kts 238°
2026-05-05 05:34 40.88773 14.29435 257 ft 126 kts 238°
2026-05-05 05:34 40.88170 14.28152 439 ft 191 kts 239°
2026-05-05 05:35 40.87406 14.26575 1236 ft 204 kts 232°
2026-05-05 05:35 40.86368 14.25214 1981 ft 219 kts 217°
2026-05-05 05:35 40.85047 14.24169 2752 ft 220 kts 205°
2026-05-05 05:35 40.83609 14.23602 3737 ft 210 kts 181°
2026-05-05 05:36 40.82153 14.23804 4444 ft 217 kts 185°
2026-05-05 05:36 40.80714 14.23087 4826 ft 232 kts 211°
2026-05-05 05:36 40.79287 14.22029 5502 ft 237 kts 210°
2026-05-05 05:36 40.77801 14.21001 6129 ft 248 kts 209°
2026-05-05 05:37 40.76212 14.19959 6827 ft 260 kts 208°
2026-05-05 05:37 40.74568 14.18930 7781 ft 262 kts 208°
2026-05-05 05:37 40.72902 14.17919 8730 ft 266 kts 208°
2026-05-05 05:37 40.71195 14.16906 9637 ft 271 kts 208°
2026-05-05 05:38 40.69450 14.15886 10434 ft 281 kts 207°
2026-05-05 05:38 40.67573 14.14795 10678 ft 309 kts 207°
2026-05-05 05:38 40.65516 14.13610 10948 ft 333 kts 207°
2026-05-05 05:38 40.63350 14.12376 11615 ft 342 kts 207°
2026-05-05 05:39 40.61153 14.11132 12512 ft 345 kts 207°
2026-05-05 05:39 40.58931 14.09875 13434 ft 349 kts 207°
2026-05-05 05:39 40.56687 14.08605 14280 ft 353 kts 207°
2026-05-05 05:39 40.54434 14.07329 15053 ft 359 kts 207°
2026-05-05 05:40 40.52127 14.06023 15850 ft 363 kts 207°
2026-05-05 05:40 40.49732 14.04822 16653 ft 371 kts 200°
2026-05-05 05:40 40.47177 14.04083 17432 ft 379 kts 194°
2026-05-05 05:40 40.44567 14.03457 18208 ft 384 kts 194°
2026-05-05 05:41 40.41916 14.02833 18898 ft 389 kts 194°
2026-05-05 05:41 40.39232 14.02187 19584 ft 393 kts 194°
2026-05-05 05:41 40.36523 14.01516 20272 ft 397 kts 194°
2026-05-05 05:41 40.33819 14.00838 20936 ft 402 kts 195°
2026-05-05 05:42 40.31070 14.00093 21578 ft 404 kts 199°
2026-05-05 05:42 40.28428 13.98808 22218 ft 403 kts 209°
2026-05-05 05:42 40.25988 13.96992 22778 ft 405 kts 218°
2026-05-05 05:42 40.23778 13.94694 23107 ft 410 kts 224°
2026-05-05 05:43 40.21584 13.92221 23106 ft 422 kts 224°
2026-05-05 05:43 40.19373 13.89683 23106 ft 433 kts 224°
2026-05-05 05:43 40.17077 13.87049 23116 ft 443 kts 224°
2026-05-05 05:43 40.14729 13.84373 23109 ft 451 kts 224°
2026-05-05 05:44 40.12347 13.81678 23106 ft 455 kts 224°
2026-05-05 05:44 40.09943 13.78978 23087 ft 452 kts 223°
2026-05-05 05:44 40.07561 13.76317 23097 ft 450 kts 223°
2026-05-05 05:44 40.05180 13.73662 23093 ft 449 kts 223°
2026-05-05 05:45 40.02806 13.71018 23101 ft 448 kts 223°
2026-05-05 05:45 40.00434 13.68377 23096 ft 448 kts 223°
2026-05-05 05:45 39.98089 13.65769 23102 ft 448 kts 223°
2026-05-05 05:45 39.95716 13.63131 23098 ft 449 kts 223°
2026-05-05 05:46 39.93338 13.60490 23102 ft 449 kts 223°
2026-05-05 05:46 39.90955 13.57845 23101 ft 449 kts 223°
2026-05-05 05:46 39.88570 13.55201 23105 ft 450 kts 223°
2026-05-05 05:46 39.86177 13.52550 23111 ft 450 kts 223°
2026-05-05 05:47 39.83783 13.49901 23093 ft 450 kts 223°
2026-05-05 05:47 39.81424 13.47293 23102 ft 450 kts 223°
2026-05-05 05:47 39.79037 13.44656 23104 ft 450 kts 223°
2026-05-05 05:47 39.76645 13.42017 23099 ft 449 kts 223°
2026-05-05 05:48 39.74283 13.39416 23088 ft 441 kts 223°
2026-05-05 05:48 39.71951 13.36849 23095 ft 439 kts 223°
2026-05-05 05:48 39.69617 13.34281 23103 ft 440 kts 223°
2026-05-05 05:48 39.67269 13.31698 23101 ft 441 kts 223°
2026-05-05 05:49 39.64925 13.29121 23100 ft 442 kts 223°
2026-05-05 05:49 39.62572 13.26538 23105 ft 442 kts 223°
2026-05-05 05:49 39.60244 13.23985 23102 ft 442 kts 223°
2026-05-05 05:49 39.57896 13.21414 23096 ft 442 kts 223°
2026-05-05 05:50 39.55549 13.18846 23098 ft 441 kts 223°
2026-05-05 05:50 39.53206 13.16284 23099 ft 441 kts 223°
2026-05-05 05:50 39.50858 13.13719 23098 ft 440 kts 223°
2026-05-05 05:50 39.48511 13.11158 23098 ft 440 kts 223°
2026-05-05 05:51 39.46172 13.08608 23094 ft 440 kts 223°
2026-05-05 05:51 39.43827 13.06054 23100 ft 439 kts 223°
2026-05-05 05:51 39.41488 13.03508 23100 ft 439 kts 223°
2026-05-05 05:51 39.39147 13.00962 23106 ft 439 kts 223°
2026-05-05 05:52 39.36834 12.98448 23098 ft 439 kts 223°
2026-05-05 05:52 39.34493 12.95907 23099 ft 439 kts 223°
2026-05-05 05:52 39.32153 12.93370 23098 ft 439 kts 223°
2026-05-05 05:52 39.29808 12.90829 23098 ft 439 kts 223°
2026-05-05 05:53 39.27457 12.88284 23100 ft 440 kts 223°
2026-05-05 05:53 39.25112 12.85748 23101 ft 440 kts 223°
2026-05-05 05:53 39.22790 12.83238 23101 ft 440 kts 223°
2026-05-05 05:53 39.20441 12.80703 23103 ft 440 kts 223°
2026-05-05 05:54 39.18097 12.78175 23098 ft 439 kts 223°
2026-05-05 05:54 39.15747 12.75641 23102 ft 439 kts 223°
2026-05-05 05:54 39.13401 12.73116 23099 ft 439 kts 223°
2026-05-05 05:54 39.11055 12.70592 23100 ft 439 kts 223°
2026-05-05 05:55 39.08709 12.68071 23102 ft 439 kts 223°
2026-05-05 05:55 39.06388 12.65578 23102 ft 439 kts 223°
2026-05-05 05:55 39.04041 12.63059 23103 ft 438 kts 223°
2026-05-05 05:55 39.01698 12.60548 23101 ft 438 kts 223°
2026-05-05 05:56 38.99352 12.58034 23099 ft 438 kts 223°
2026-05-05 05:56 38.97000 12.55517 23104 ft 438 kts 223°
2026-05-05 05:56 38.94683 12.53038 23101 ft 439 kts 223°
2026-05-05 05:56 38.92329 12.50525 23097 ft 439 kts 223°
2026-05-05 05:57 38.89951 12.48057 23096 ft 440 kts 218°
2026-05-05 05:57 38.87226 12.46205 23105 ft 447 kts 204°
2026-05-05 05:57 38.84217 12.45147 23106 ft 452 kts 192°
2026-05-05 05:57 38.81054 12.44948 23108 ft 458 kts 181°
2026-05-05 05:58 38.77866 12.45183 23102 ft 459 kts 180°
2026-05-05 05:58 38.74678 12.45457 23097 ft 459 kts 179°
2026-05-05 05:58 38.71488 12.45732 23097 ft 459 kts 179°
2026-05-05 05:58 38.68300 12.45991 23101 ft 459 kts 180°
2026-05-05 05:59 38.65153 12.46230 23097 ft 459 kts 180°
2026-05-05 05:59 38.61957 12.46458 23103 ft 459 kts 180°
2026-05-05 05:59 38.58761 12.46678 23105 ft 459 kts 180°
2026-05-05 05:59 38.55595 12.46894 22918 ft 449 kts 180°
2026-05-05 06:00 38.52524 12.47104 22452 ft 435 kts 180°
2026-05-05 06:00 38.49530 12.47308 22087 ft 426 kts 180°
2026-05-05 06:00 38.46574 12.47506 21732 ft 424 kts 180°
2026-05-05 06:00 38.43628 12.47702 21379 ft 423 kts 180°
2026-05-05 06:01 38.40691 12.47898 21033 ft 422 kts 180°
2026-05-05 06:01 38.37787 12.48093 20695 ft 420 kts 180°
2026-05-05 06:01 38.34874 12.48195 20347 ft 417 kts 186°
2026-05-05 06:01 38.32025 12.47646 20004 ft 410 kts 197°
2026-05-05 06:02 38.29342 12.46467 19696 ft 402 kts 207°
2026-05-05 06:02 38.26909 12.44938 19412 ft 389 kts 209°
2026-05-05 06:02 38.24530 12.43417 19129 ft 377 kts 209°
2026-05-05 06:02 38.22217 12.41945 18834 ft 366 kts 209°
2026-05-05 06:03 38.19959 12.40517 18556 ft 359 kts 209°
2026-05-05 06:03 38.17730 12.39114 18259 ft 357 kts 209°
2026-05-05 06:03 38.15495 12.37712 17947 ft 357 kts 209°
2026-05-05 06:03 38.13262 12.36315 17632 ft 357 kts 209°
2026-05-05 06:04 38.11060 12.34941 17329 ft 356 kts 209°
2026-05-05 06:04 38.08834 12.33555 17022 ft 356 kts 209°
2026-05-05 06:04 38.06598 12.32164 16715 ft 356 kts 209°
2026-05-05 06:04 38.04375 12.30782 16411 ft 355 kts 208°
2026-05-05 06:05 38.02155 12.29404 16111 ft 354 kts 209°
2026-05-05 06:05 37.99969 12.28048 15818 ft 353 kts 208°
2026-05-05 06:05 37.97768 12.26683 15521 ft 352 kts 208°
2026-05-05 06:05 37.95572 12.25323 15237 ft 350 kts 208°
2026-05-05 06:06 37.93383 12.23968 14948 ft 348 kts 208°
2026-05-05 06:06 37.91209 12.22623 14650 ft 347 kts 208°
2026-05-05 06:06 37.89037 12.21280 14372 ft 345 kts 208°
2026-05-05 06:06 37.86880 12.19947 14091 ft 343 kts 208°
2026-05-05 06:07 37.84736 12.18623 13801 ft 342 kts 208°
2026-05-05 06:07 37.82632 12.17324 13489 ft 340 kts 208°
2026-05-05 06:07 37.80479 12.15997 13170 ft 339 kts 208°
2026-05-05 06:07 37.78391 12.14709 12871 ft 337 kts 208°
2026-05-05 06:08 37.76289 12.13414 12559 ft 336 kts 208°
2026-05-05 06:08 37.74184 12.12118 12257 ft 334 kts 208°
2026-05-05 06:08 37.72096 12.10834 11958 ft 333 kts 208°
2026-05-05 06:08 37.70010 12.09551 11655 ft 332 kts 208°
2026-05-05 06:09 37.67941 12.08280 11361 ft 329 kts 208°
2026-05-05 06:09 37.65905 12.07030 11063 ft 321 kts 208°
2026-05-05 06:09 37.63923 12.05813 10763 ft 313 kts 208°
2026-05-05 06:09 37.61982 12.04623 10474 ft 306 kts 208°
2026-05-05 06:10 37.60109 12.03475 10190 ft 300 kts 208°
2026-05-05 06:10 37.58242 12.02329 9890 ft 295 kts 208°
2026-05-05 06:10 37.56412 12.01210 9572 ft 290 kts 208°
2026-05-05 06:10 37.54581 12.00166 9259 ft 287 kts 201°
2026-05-05 06:11 37.53300 11.99713 9054 ft 286 kts 193°
2026-05-05 06:11 37.50690 11.99396 8659 ft 282 kts 184°
2026-05-05 06:11 37.48731 11.99318 8349 ft 279 kts 183°
2026-05-05 06:11 37.46794 11.99256 8048 ft 276 kts 183°
2026-05-05 06:12 37.45525 11.99215 7851 ft 275 kts 183°
2026-05-05 06:12 37.43622 11.99151 7559 ft 272 kts 183°
2026-05-05 06:12 37.41737 11.99082 7265 ft 270 kts 183°
2026-05-05 06:12 37.39877 11.99012 7136 ft 263 kts 183°
2026-05-05 06:13 37.38055 11.98971 7100 ft 261 kts 176°
2026-05-05 06:13 37.36278 11.99382 7104 ft 259 kts 167°
2026-05-05 06:13 37.34523 12.00000 7123 ft 267 kts 165°
2026-05-05 06:13 37.32718 12.00668 7098 ft 271 kts 165°
2026-05-05 06:14 37.30899 12.01332 7108 ft 273 kts 165°
2026-05-05 06:14 37.29071 12.01985 7097 ft 273 kts 165°
2026-05-05 06:14 37.27267 12.02619 7095 ft 272 kts 166°
2026-05-05 06:14 37.25443 12.03250 7097 ft 272 kts 166°
2026-05-05 06:15 37.23616 12.03876 7099 ft 271 kts 166°
2026-05-05 06:15 37.21793 12.04497 7104 ft 271 kts 166°
2026-05-05 06:15 37.19970 12.05116 7093 ft 271 kts 166°
2026-05-05 06:15 37.18146 12.05732 7102 ft 272 kts 166°
2026-05-05 06:16 37.16321 12.06347 7104 ft 272 kts 166°
2026-05-05 06:16 37.14480 12.06968 6978 ft 275 kts 166°
2026-05-05 06:16 37.12637 12.07587 6835 ft 269 kts 166°
2026-05-05 06:16 37.10877 12.08179 6676 ft 262 kts 166°
2026-05-05 06:17 37.09142 12.08763 6527 ft 255 kts 166°
2026-05-05 06:17 37.07436 12.09335 6379 ft 252 kts 166°
2026-05-05 06:17 37.05730 12.09907 6229 ft 253 kts 166°
2026-05-05 06:17 37.04028 12.10477 6074 ft 253 kts 166°
2026-05-05 06:18 37.02345 12.11041 5866 ft 254 kts 166°
2026-05-05 06:18 37.00645 12.11610 5612 ft 251 kts 166°
2026-05-05 06:18 36.98959 12.12175 5359 ft 249 kts 166°
2026-05-05 06:18 36.97298 12.12740 5120 ft 247 kts 163°
2026-05-05 06:19 36.95836 12.13833 4873 ft 246 kts 140°
2026-05-05 06:19 36.94600 12.15268 4660 ft 236 kts 140°
2026-05-05 06:19 36.93379 12.16545 4396 ft 227 kts 144°
2026-05-05 06:19 36.92111 12.17658 4145 ft 218 kts 149°
2026-05-05 06:20 36.90828 12.18587 3894 ft 208 kts 154°
2026-05-05 06:20 36.89554 12.19372 3635 ft 200 kts 157°
2026-05-05 06:20 36.88269 12.19910 3381 ft 192 kts 178°
2026-05-05 06:20 36.87069 12.19355 3119 ft 188 kts 224°
2026-05-05 06:21 36.86401 12.18017 3047 ft 174 kts 235°
2026-05-05 06:21 36.85823 12.16768 2997 ft 159 kts 242°
2026-05-05 06:21 36.85419 12.15486 3011 ft 160 kts 245°
2026-05-05 06:21 36.85058 12.14182 2996 ft 154 kts 248°
2026-05-05 06:22 36.84785 12.12953 2985 ft 142 kts 250°
2026-05-05 06:22 36.84541 12.11754 3031 ft 145 kts 251°
2026-05-05 06:22 36.84305 12.10554 3002 ft 137 kts 251°
2026-05-05 06:22 36.84078 12.09391 2796 ft 136 kts 251°
2026-05-05 06:23 36.83860 12.08270 2587 ft 130 kts 250°
2026-05-05 06:23 36.83651 12.07200 2407 ft 128 kts 250°
2026-05-05 06:23 36.83440 12.06118 2212 ft 127 kts 249°
2026-05-05 06:23 36.83231 12.05048 2020 ft 126 kts 249°
2026-05-05 06:24 36.83024 12.03982 1825 ft 127 kts 250°
2026-05-05 06:24 36.82817 12.02920 1622 ft 127 kts 250°
2026-05-05 06:24 36.82609 12.01849 1432 ft 127 kts 250°
2026-05-05 06:24 36.82409 12.00791 1252 ft 122 kts 251°
2026-05-05 06:25 36.82222 11.99727 1048 ft 128 kts 250°
2026-05-05 06:25 36.81994 11.98667 833 ft 125 kts 249°
2026-05-05 06:25 36.81795 11.97632 680 ft 121 kts 252°
2026-05-05 06:25 36.81598 11.96642 646 ft 113 kts 253°
2026-05-05 06:26 36.81459 11.95933 659 ft 59 kts 257°
2026-05-05 06:26 36.81422 11.95646 666 ft 9 kts 233°
2026-05-05 06:26 36.81402 11.95641 666 ft 3 kts 160°
2026-05-05 06:26 36.81398 11.95674 665 ft 7 kts 76°
2026-05-05 06:27 36.81418 11.95775 661 ft 18 kts 75°
2026-05-05 06:27 36.81516 11.96247 647 ft 33 kts 76°
2026-05-05 06:27 36.81568 11.96517 644 ft 25 kts 77°
2026-05-05 06:28 36.81612 11.96715 645 ft 23 kts 75°
2026-05-05 06:28 36.81650 11.96879 642 ft 19 kts 58°
2026-05-05 06:28 36.81739 11.96952 640 ft 9 kts 32°
2026-05-05 06:28 36.81809 11.96974 641 ft 12 kts 328°
2026-05-05 06:29 36.81855 11.96902 635 ft 7 kts 319°
2026-05-05 06:29 36.81894 11.96862 632 ft 7 kts 302°
2026-05-05 06:29 36.81919 11.96863 632 ft 4 kts 45°
2026-05-05 06:29 36.81914 11.96880 641 ft 0 kts 140°